Regional Weather Roundup
Issued by NWS

Home | Current Version | Previous Version | Text Only | Print | Product List | Glossary Off
Versions: 1 2 3 4 5 6 7 8 9 10 11 12 13 14 15 16 17 18 19 20 21 22 23 24 25 26 27 28 29 30 31 32 33 34 35 36 37 38 39 40 41 42 43 44 45 46 47 48 49 50

000
ASUS43 KDTX 050210
RWRMI
MICHIGAN HOURLY REGIONAL WEATHER ROUNDUP
NATIONAL WEATHER SERVICE DETROIT/PONTIAC MI
1000 PM EDT WED MAY 04 2016

NOTE: "FAIR" INDICATES FEW OR NO CLOUDS BELOW 12,000 FEET WITH NO
SIGNIFICANT WEATHER AND/OR OBSTRUCTION TO VISIBILITY.

MIZ047>049-052>055-059>063-066>070-074>076-081>083-050300-
SOUTHEAST LOWER MICHIGAN

CITY           SKY/WX    TMP DP  RH WIND       PRES   REMARKS
ADRIAN         CLOUDY    44  40  85 NW3       29.70R
ALMA           LGT RAIN  46  45  97 N9G16     29.76R
ANN ARBOR      CLOUDY    46  41  82 W5        29.69R
BAD AXE        CLOUDY    43  41  91 N12       29.76R
CARO           PTCLDY    44  42  91 NE7       29.74R
DETROIT CITY   LGT RAIN  50  47  89 E3        29.71R
DETROIT        DRIZZLE   49  46  90 CALM      29.70R
FLINT          LGT RAIN  52  47  83 NE8       29.73R
GROSSE ILE     CLOUDY    50  46  87 CALM      29.68R
HILLSDALE      CLOUDY    40  37  91 CALM      29.68R
HOWELL         DRIZZLE   46  46  97 CALM      29.70R

CITY           SKY/WX    TMP DP  RH WIND       PRES   REMARKS
JACKSON        CLOUDY    42  41  96 SE3       29.69R
LAMBERTVILLE   CLOUDY    46  43  87 W3        29.70R
LANSING        LGT RAIN  49  46  90 NE12      29.70R
LAPEER         MOCLDY    50  47  90 NE8       29.73R
MASON          CLOUDY    45  43  93 CALM      29.70R
MONROE         CLOUDY    48  43  82 W7        29.68R
MT. CLEMENS    CLOUDY    49  49 100 CALM      29.70R
PONTIAC        LGT RAIN  48  47  96 NE3       29.69R FOG
PORT HOPE        N/A     43  41  93 NW8       29.75R
PORT HURON     CLOUDY    50  46  87 N5        29.72R
TRI CITIES     CLOUDY    50  45  83 N15       29.76R
MIDLAND        CLOUDY    47  45  93 N5        29.77R
TROY           LGT RAIN  50  49  97 CALM      29.71R
SAGINAW HB     CLOUDY    46  45  93 N13       29.74R
$$
MIZ043>046-050>051-056>058-064>065-071>073-077>080-050300-
SOUTHWEST LOWER MICHIGAN

CITY           SKY/WX    TMP DP  RH WIND       PRES   REMARKS
BATTLE CREEK   CLOUDY    44  42  93 N15       29.68R
BENTON HARBOR  CLOUDY    41  38  89 N10G26    29.78R
BIG RAPIDS     CLOUDY    42  38  86 N9G17     29.80R
COLDWATER      LGT RAIN  42  41  99 CALM      29.67R
FREMONT        DRIZZLE   41  39  94 N14G20    29.80R
HOLLAND        CLOUDY   N/A N/A N/A N10G25    29.77R
GRAND RAPIDS   LGT RAIN  44  41  89 N17       29.74R
IONIA          LGT RAIN  45  44  96 N17G25    29.72R
KALAMAZOO      LGT RAIN  43  39  86 N18G29    29.69R
LUDINGTON      DRIZZLE   41  35  80 N13G24    29.86R
MARSHALL       CLOUDY    44  43  95 NE7       29.68R
MOUNT PLEASANT CLOUDY    45  44  95 N12         N/A
MUSKEGON       LGT RAIN  42  37  82 N16       29.81R
SOUTH HAVEN    LGT RAIN  41  39  95 N17G26    29.76S
$$
MIZ016>042-050300-
NORTHERN LOWER MICHIGAN

CITY           SKY/WX    TMP DP  RH WIND       PRES   REMARKS
ALPENA         CLOUDY    44  40  85 NW12      29.82R
BEAVER ISLAND  CLOUDY    42  34  73 N8        29.91R
BELLAIRE       CLOUDY    45  35  68 N8        29.87R
CADILLAC       CLOUDY    39  37  90 N8        29.82R WCI  34
CHARLEVOIX     CLOUDY    41  37  83 N7        29.91R
FRANKFORT      CLOUDY    42  35  77 N12G24    29.88R
GAYLORD        CLOUDY    43  38  82 N6        29.83S
GRAYLING       CLOUDY    43  41  93 VRB10     29.84R
HARBOR SPRINGS CLOUDY    45  35  70 N3        29.87R
HOUGHTON LAKE  CLOUDY    43  40  89 N13G20    29.82R
MANISTEE       CLOUDY    43  30  61 N10G17    29.88R
OSCODA         PTCLDY    47  42  85 N9        29.77R
PELLSTON       CLOUDY    46  37  71 N8        29.87R
ROGERS CITY    MOCLDY    42  39  91 NW10      29.85R
TRAVERSE CITY  LGT RAIN  44  35  70 N10       29.86R
$$
MIZ007>008-015-050300-
EASTERN UPPER MICHIGAN

CITY           SKY/WX    TMP DP  RH WIND       PRES   REMARKS
KINROSS          N/A     43  41  93 N8        29.87S
MACKINAC ISLAN CLOUDY    43  37  82 N10G16    29.87R
NEWBERRY       CLOUDY    40  33  77 NW7       29.90S WCI  35
S. S. MARIE    CLOUDY    44  38  79 N6        29.88R
MUNISING         N/A     39  34  82 NW12      29.95S WCI  32
$$
MIZ004>006-011>014-085-050300-
CENTRAL UPPER MICHIGAN

CITY           SKY/WX    TMP DP  RH WIND       PRES   REMARKS
MANISTIQUE     CLEAR     37  32  81 N10       29.92R WCI  30
ESCANABA         N/A     39  28  65 N7        29.95  WCI  34
MENOMINEE      CLEAR     41  30  65 NE9       29.97R
SAWYER-GWINN   CLOUDY    37  30  75 N13       29.95S WCI  29
$$
MIZ001>003-009>011-084-050300-
WESTERN UPPER MICHIGAN

CITY           SKY/WX    TMP DP  RH WIND       PRES   REMARKS
IRON MOUNTAIN  PTCLDY    40  30  67 N8        29.96R WCI  34
HOUGHTON       CLEAR     35  30  82 NW8       29.99R WCI  29
COPPER HARBOR    N/A     39  34  82 N5        29.99R
IRONWOOD         N/A     43  34  70 CALM      29.97R
$$

ABBREVIATIONS USED IN REMARKS
   TC - TEMPERATURE IN CELSIUS
  WCI - WIND CHILL INDEX
   HX - HEAT INDEX
  VSB - VISIBILITY





USA.gov is the U.S. government's official web portal to all federal, state and local government web resources and services.